Location: Caltech
(34.1382°N, 118.1253°W)
Time: 20:41:27
(UTC-07:00)

JAS-2 - Visible Passes

Search period start: 20 October 2014 00:00
Search period end: 30 October 2014 00:00
Orbit: 801 x 1321 km, 98.5° (Epoch: 18 October)

Date Brightness Start Highest point End Pass type
(mag) Time Alt. Az. Time Alt. Az. Time Alt. Az.
20 Oct 12.5 05:05:36 10° NE 05:11:07 21° E 05:16:39 10° SE visible
20 Oct 11.7 18:43:13 10° SSW 18:48:01 29° W 18:53:19 10° NW visible
21 Oct 11.2 05:54:08 10° NNE 06:01:38 50° E 06:09:07 10° S visible
22 Oct 12.6 05:01:01 10° NE 05:06:18 19° E 05:11:32 10° SE visible
22 Oct 11.5 18:38:02 10° SSW 18:43:03 33° W 18:48:39 10° NNW visible
23 Oct 11.3 05:49:23 10° NNE 05:56:51 47° E 06:04:14 10° S visible
23 Oct 13.0 19:32:54 10° W 19:33:52 10° W 19:34:52 10° WNW visible
24 Oct 12.7 04:56:28 10° NE 05:01:27 18° E 05:06:22 10° SE visible
24 Oct 11.4 18:32:53 10° SSW 18:38:06 36° W 18:43:58 10° NNW visible
25 Oct 11.4 05:44:39 10° NNE 05:52:04 44° E 05:59:18 10° SSE visible
25 Oct 12.8 19:26:42 10° WSW 19:28:54 12° W 19:31:11 10° WNW visible
26 Oct 12.8 04:51:59 10° NE 04:56:37 17° E 05:01:10 10° SE visible
26 Oct 10.2 06:34:23 10° N 06:42:16 84° WNW 06:49:58 10° SSW visible
26 Oct 11.2 18:27:45 10° SSW 18:33:10 39° W 18:39:17 10° NNW visible
27 Oct 11.5 05:39:56 10° NNE 05:47:16 41° E 05:54:22 10° SSE visible
27 Oct 12.8 19:21:00 10° WSW 19:23:56 14° W 19:27:01 10° WNW visible
28 Oct 12.8 04:47:33 10° NE 04:51:45 15° E 04:55:53 10° ESE visible
28 Oct 10.2 06:29:35 10° NNE 06:37:30 89° WNW 06:45:09 10° SSW visible
28 Oct 11.1 18:22:38 10° SSW 18:28:14 43° W 18:34:36 10° NNW visible
29 Oct 11.6 05:35:15 10° NNE 05:42:28 39° E 05:49:24 10° SSE visible
29 Oct 12.7 19:15:29 10° WSW 19:18:58 16° W 19:22:41 10° NW visible
